Location: Newark
(34.6283°N, 36.0776°E)
Time: 08:50:27
(UTC+00:00)

S-56A Canister/Altair - Pass Details

Date: 20 October 2019
Orbit: 634 x 2498 km, 38.9° (Epoch: 11 November)

Event Time Altitude Azimuth Distance (km) Brightness Sun altitude
Rises 04:14:04 0° 288° (WNW) 4,243 10.6 5.0°
Reaches altitude 10° 04:16:32 10° 289° (WNW) 3,485 10.3 5.4°
Maximum altitude 04:25:53 87° 20° (NNE) 1,862 9.6 7.3°
Drops below altitude 10° 04:39:40 10° 110° (ESE) 4,953 17.7 10.0°
Sets 04:43:53 0° 111° (ESE) 6,085 14.4 10.8°
